Regional Weather Roundup
Issued by NWS Sterling, VA

Home | Current Version | Previous Version | Text Only | Print | Product List | Glossary Off
Versions: 1 2 3 4 5 6 7 8 9 10 11 12 13 14 15 16 17 18 19 20 21 22 23 24 25 26 27 28 29 30 31 32 33 34 35 36 37 38 39 40 41 42 43 44 45 46 47 48 49 50

000
ASUS41 KLWX 270410
RWRLWX

REGIONAL WEATHER ROUNDUP
NATIONAL WEATHER SERVICE BALTIMORE MD/WASHINGTON DC
1100 PM EST WED NOV 26 2014

Note: "FAIR" indicates few or no clouds below 12,000 feet
with no significant weather and/or obstructions to visibility.
 TC=TEMPERATURE CELSIUS

 * =Non NWS site. Station does not report precipitation (e.g. rain,
    snow, etc.), thunder, or fog.

DCZ001-MDZ009-015-VAZ040>042-051-053>054-270500-
WASHINGTON METRO

CITY           SKY/WX    TMP DP  RH WIND       PRES   REMARKS
WASHINGTON NAT MOCLDY    40  33  76 W7        30.02R
DULLES         CLOUDY    35  32  88 NW7       30.01R
ANDREWS AFB    CLOUDY    37  34  89 W10       30.00R
FT BELVOIR     CLOUDY    37  34  86 W5        30.03R
QUANTICO       CLOUDY    38  34  85 NW3       30.04R
COLLEGE PARK*  CLOUDY    37  34  87 W5        30.01R
LEESBURG*      CLOUDY    36  36 100 CALM      30.02S
MANASSAS*      CLOUDY    37  37 100 CALM      30.02S
GAITHERSBURG*  CLOUDY    34  30  86 W6        30.02S

$$

MDZ006>007-011-014-270500-
BALTIMORE METRO

CITY           SKY/WX    TMP DP  RH WIND       PRES   REMARKS
BWI AIRPORT    DRIZZLE   36  32  85 NW6       29.98R
MD SCIENCE CTR   N/A     37  31  78 MISG      29.98R
MARTIN STATE   CLOUDY    37  34  87 W9        29.99R
ANNAPOLIS      CLOUDY    38  33  82 NW7       29.99R
FORT MEADE*    CLOUDY    34  32  93 W7        30.02R

$$

MDZ012-015-019>023-270500-
MARYLAND EASTERN SHORE

CITY           SKY/WX    TMP DP  RH WIND       PRES   REMARKS
OCEAN CITY     CLOUDY    38  36  92 NW9       29.95R
SALISBURY      CLOUDY    41  35  79 W9        29.97R
BAY BRIDGE AP*   N/A     37  34  87 W10       29.99R
CAMBRIDGE*     MOCLDY    41  36  81 NW8G16    29.98R
EASTON*        MOCLDY    40  40 100 NW8       30.01R

$$

MDZ017>025-270500-
SOUTHERN MARYLAND

CITY           SKY/WX    TMP DP  RH WIND       PRES   REMARKS
PATUXENT RIVER CLOUDY    38  34  85 W13       30.01R
ST INIGOES     CLOUDY    39  34  82 W12       30.02R
LEONARDTOWN*   CLOUDY    36  34  93 W10       30.02R WCI  28

$$

MDZ003>005-270500-
NORTH CENTRAL MARYLAND

CITY           SKY/WX    TMP DP  RH WIND       PRES   REMARKS
FREDERICK*     MOCLDY    36  32  87 W3        30.03R
HAGERSTOWN APT CLOUDY    35  30  82 NW8       29.98S WCI  29
WESTMINSTER*   MOCLDY    34  32  93 NW6       29.96R

$$

MDZ501>502-270500-
WESTERN MARYLAND

CITY           SKY/WX    TMP DP  RH WIND       PRES   REMARKS
OAKLAND*       FOG       30 N/A N/A W6        29.91S VSB 1/2
CUMBERLAND*    CLOUDY    34  34 100 CALM      30.03S VSB 1/4

$$

VAZ025>031-270500-
SHENANDOAH VALLEY

CITY           SKY/WX    TMP DP  RH WIND       PRES   REMARKS
WINCHESTER*    FOG       34  30  86 SE3       29.99S VSB 3/4
FRONT ROYAL*   MOCLDY    32  32 100 SW5       29.99R
LURAY*         FOG       34  34 100 CALM      29.99S VSB 1/4
NEW MARKET*    CLOUDY    30  30 100 W3        29.99S
STAUNTON*      FOG       33  32  96 CALM      30.01S VSB 1/2
WAYNESBORO*    CLOUDY    30  30  99 CALM      29.99S VSB 1/4

$$

WVZ021-048>050-054>055-270500-
EASTERN WEST VIRGINIA PANHANDLE

CITY           SKY/WX    TMP DP  RH WIND       PRES   REMARKS
MARTINSBURG    CLOUDY    34  31  88 CALM      30.00S
PETERSBURG*    FOG       32  32  99 CALM      30.00F VSB 3/4

$$

VAZ036>039-050-270500-
CENTRAL FOOTHILLS

CITY           SKY/WX    TMP DP  RH WIND       PRES   REMARKS
CHARLOTTESVILL CLOUDY    36  35  96 SW3       30.01R FOG
CULPEPER*      CLOUDY    36  36 100 CALM      30.02S
ORANGE*        CLOUDY    36  36 100 CALM      30.02S FOG
GORDONSVILLE*  CLOUDY    35  35  99 CALM      30.00F FOG
WARRENTON*     CLOUDY    36  36 100 CALM      30.01S

$$

VAZ055>057-270500-
NORTH AND CENTRAL PIEDMONT

CITY           SKY/WX    TMP DP  RH WIND       PRES   REMARKS
FREDERICKSBRG* CLOUDY    38  38 100 CALM      30.02F
STAFFORD*      CLOUDY    36  36 100 CALM      30.06F

$$

NCZ024-NYZ072-PAZ021-071-VAZ022-071-270500-
OTHER REGIONAL OBSERVATIONS

CITY           SKY/WX    TMP DP  RH WIND       PRES   REMARKS
NEW YORK CITY  CLOUDY    35  32  88 VRB6      29.83R
PHILADELPHIA   CLOUDY    37  31  78 NW12      29.90R
PITTSBURGH     CLOUDY    32  31  96 W3        29.99F FOG
ROANOKE        CLOUDY    35  33  92 N6        30.01F
RICHMOND       CLOUDY    40  36  86 CALM      30.03F
RALEIGH        PTCLDY    37  36  93 CALM      30.07R

$$

ANZ530>537-270500-
MARINE OBSERVATIONS

STATION/POSITION TIME  TEMP    WIND        PRES
                       AIR SEA DIR/SP/G
                 (UTC) (F)     (DEG/KT/KT) (MB)
THOMAS PT LIGHT  0400   38 47  290/ 14/ 16 1016.6R
BALT KEY BRIDGE  0400   38     280/ 14/ 19 1014.9R
COVE POINT       0400   37     310/ 12/ 16 1015.6R
LEWISETTA        0400   38 48  290/ 10/ 13 1016.5R
SOLOMONS ISLAND  0400      49                N/A
PINEY POINT      0400          320/ 22/ 25   N/A

$$



USA.gov is the U.S. government's official web portal to all federal, state and local government web resources and services.